Akron Canton, OH

10:06 AM EDT on July 24, 2017 (GMT -0400)
Akron-Canton Regional

Weather History for KCAK - November, 2011

Change the Weather History Date:

Sunday, November 20, 2011

  Actual Average Record
Temperature  
Mean Temperature 52 °F 40 °F  
Max Temperature 60 °F 47 °F 74 °F (1931)
Min Temperature 43 °F 33 °F 13 °F (1951)
Degree Days  
Heating Degree Days 13 25  
Month to date heating degree days 351 431  
Since 1 July heating degree days 829 986  
Cooling Degree Days 0 0  
Month to date cooling degree days 0 0  
Year to date cooling degree days 911 652  
Growing Degree Days 2 (Base 50)    
Moisture  
Dew Point 45 °F    
Average Humidity 68    
Maximum Humidity 80    
Minimum Humidity 55    
Precipitation  
Precipitation 0.01 in 0.11 in 1.22 in (1950)
Month to date precipitation 2.32 2.19  
Year to date precipitation 51.09 35.67  
Snow  
Snow 0.00 in 0.10 in - ()
Month to date snowfall T 1.5  
Since 1 July snowfall T 1.9  
Since 1 September snowfall T 1.9  
Snow Depth 0.00 in    
Sea Level Pressure  
Sea Level Pressure 30.13 in    
Wind  
Wind Speed 13 mph (West)    
Max Wind Speed 23 mph    
Max Gust Speed 30 mph    
Visibility 9 miles    
Events Rain    
T = Trace of Precipitation, MM = Missing Value Source: NWS Daily Summary

Daily Weather History Graph

Daily Weather History Graph

Search for Another Location

Airport or City:

Trip Planner

Search our weather history database for the weather conditions in past years. The results will help you decide how hot, cold, wet, or windy it might be!

Date:

Astronomy

Nov. 20, 2011 Rise Set
Actual Time 7:18 AM EST 5:03 PM EST
Civil Twilight 6:48 AM EST 5:33 PM EST
Nautical Twilight 6:15 AM EST 6:06 PM EST
Astronomical Twilight 5:42 AM EST 6:39 PM EST
Moon 1:43 AM EST (11/20) 1:54 PM EST (11/20)
Length of Visible Light 10h 44m
Length of Day
9h 45m
Waning Crescent, 27% of the Moon is Illuminated
Nov 20
Waning Crescent
Nov 25
New
Dec 2
First Quarter
Dec 10
Full
Dec 17
Last Quarter

Hourly Weather History & Observations

Time (EST) Temp. Windchill Dew Point Humidity Pressure Visibility Wind Dir Wind Speed Gust Speed Precip Events Conditions
12:51 AM 57.0 °F - 42.1 °F 57% 30.00 in 10.0 mi SSW 18.4 mph 26.5 mph N/A   Overcast
1:51 AM 55.9 °F - 43.0 °F 62% 30.00 in 10.0 mi SW 18.4 mph 25.3 mph N/A   Scattered Clouds
2:51 AM 57.0 °F - 45.0 °F 64% 30.02 in 10.0 mi SW 13.8 mph 23.0 mph N/A   Scattered Clouds
3:51 AM 57.0 °F - 46.0 °F 67% 30.01 in 10.0 mi SW 13.8 mph - N/A   Scattered Clouds
4:51 AM 57.9 °F - 46.9 °F 67% 30.03 in 10.0 mi SW 15.0 mph 21.9 mph N/A   Overcast
5:51 AM 57.9 °F - 48.0 °F 70% 30.05 in 10.0 mi SW 17.3 mph 23.0 mph 0.00 in   Overcast
6:51 AM 57.9 °F - 48.0 °F 70% 30.06 in 10.0 mi WSW 11.5 mph 20.7 mph N/A   Mostly Cloudy
7:51 AM 57.9 °F - 48.0 °F 70% 30.09 in 10.0 mi WSW 13.8 mph - N/A   Mostly Cloudy
8:51 AM 57.9 °F - 48.9 °F 72% 30.11 in 9.0 mi WSW 16.1 mph - N/A   Mostly Cloudy
9:51 AM 57.9 °F - 50.0 °F 75% 30.14 in 9.0 mi SW 11.5 mph - N/A   Overcast
10:51 AM 59.0 °F - 50.0 °F 72% 30.14 in 8.0 mi WSW 12.7 mph 21.9 mph N/A   Overcast
11:51 AM 60.1 °F - 51.1 °F 72% 30.14 in 6.0 mi WSW 11.5 mph 19.6 mph N/A   Haze
12:51 PM 60.1 °F - 51.1 °F 72% 30.13 in 6.0 mi WSW 17.3 mph - N/A   Haze
1:51 PM 59.0 °F - 51.1 °F 75% 30.12 in 6.0 mi WSW 11.5 mph - N/A   Haze
2:51 PM 55.9 °F - 46.0 °F 69% 30.12 in 6.0 mi North 8.1 mph - N/A   Haze
3:51 PM 53.6 °F - 44.6 °F 72% 30.14 in 7.0 mi North 6.9 mph - N/A   Overcast
4:13 PM 53.6 °F - 42.8 °F 67% 30.14 in 7.0 mi NNW 5.8 mph - N/A   Overcast
4:51 PM 51.1 °F - 44.1 °F 77% 30.16 in 8.0 mi NNW 8.1 mph - 0.00 in Rain Light Rain
5:51 PM 48.9 °F - 43.0 °F 80% 30.19 in 7.0 mi North 12.7 mph - 0.01 in Rain Light Rain
6:51 PM 46.9 °F - 42.1 °F 83% 30.20 in 7.0 mi North 9.2 mph - 0.00 in   Overcast
7:51 PM 46.9 °F - 39.9 °F 77% 30.21 in 9.0 mi NNE 10.4 mph - N/A   Overcast
8:51 PM 46.0 °F 40.6 °F 39.0 °F 76% 30.23 in 10.0 mi North 11.5 mph - N/A   Overcast
9:51 PM 45.0 °F 39.3 °F 37.9 °F 76% 30.24 in 10.0 mi NNE 11.5 mph - 0.00 in   Overcast
10:51 PM 44.6 °F 38.4 °F 37.4 °F 76% 30.22 in 10.0 mi NNE 12.7 mph - N/A   Overcast
11:51 PM 43.0 °F 36.4 °F 36.0 °F 76% 30.25 in 10.0 mi NNE 12.7 mph - N/A   Overcast